Location: Grust
(42.8833°N, 0.0333°W)
Time: 19:59:01
(UTC+00:00)

USA 308 - Pass Details

Date: 25 October 2020
Orbit: 571 x 578 km, 54.0° (Epoch: 23 November)

Event Time Altitude Azimuth Distance (km) Brightness Sun altitude
Rises 18:33:20 0° 308° (NW) 2,786 7.3 -17.4°
Reaches altitude 10° 18:35:56 10° 322° (NW) 1,885 6.0 -17.9°
Maximum altitude 18:39:30 25° 18° (NNE) 1,178 4.3 -18.5°
Enters shadow 18:40:06 24° 32° (NNE) 1,205 4.2 -18.6°
